Other Surface Observations
Issued by NWS

Current Version | Previous Version | Text Only | Print | Product List | Glossary On
Versions: 1 2 3 4 5 6 7 8 9 10 11 12 13 14 15 16 17 18 19 20 21 22 23 24 25 26 27 28 29 30 31 32 33 34 35 36 37 38 39 40 41 42 43 44 45 46 47 48 49 50
000
SXUS52 KTAE 301018
OSOTAE
OSOTAE
North Florida/South Alabama/Southwest Georgia Weather Roundup
National Weather Service Tallahassee Florida
600 AM EDT TUE SEP 30 2014

Note: "fair" indicates few or no clouds below 12,000 feet with no
significant weather and/or obstructions to visibility.

!FLZ017-115-028-034-025-301100
...North Florida...

CITY           SKY/WX    TMP DP  RH WIND       PRES   REMARKS
TALLAHASSEE    MOCLDY    73  71  93 NE3       29.85R
APALACHICOLA   CLOUDY    74  71  91 NE9       29.83R
PERRY          CLOUDY    63  63 100 N5        29.85R
CROSS CITY       N/A     74  72  93 N5        29.83R
JACKSONVILLE   CLOUDY    72  72 100 N8        29.82R
$$

!FLZ112-006-005-002-011-301100
...Florida Panhandle...

CITY           SKY/WX    TMP DP  RH WIND       PRES   REMARKS
MARIANNA       CLOUDY    72  71  97 N3        29.86S
BONIFAY        CLOUDY    71  69  93 N3        29.88R
PANAMA CITY NW CLOUDY    72  69  90 N3        29.85S
TYNDALL AFB    CLOUDY    72  72 100 NE5       29.85S
TYND DRONE APT CLOUDY    72  72  99 MISG      29.84R
DE FUNIAK SPR  CLOUDY    70  69  95 NE5       29.89R
EGLIN AFB      MOCLDY    71  68  91 NE6       29.87R
DESTIN         CLOUDY    73  70  90 NE7       29.87R
HURLBURT       CLEAR     70  66  88 NE6       29.86R
CRESTVIEW      CLOUDY    71  69  93 N5        29.89R
PENSACOLA      MOCLDY    71  69  93 VRB6      29.87R
$$

!ALZ063-066-301100
...South Alabama...

CITY           SKY/WX    TMP DP  RH WIND       PRES   REMARKS
DOTHAN         CLOUDY    70  69  97 NE5       29.92S
OZARK CAIRNS   CLOUDY    71  68  90 N6        29.89R
FT RUCKER HELI CLOUDY    70  68  93 NE5       29.88S
RUCKER HELI 3  CLOUDY    70  68  94 NE3       29.92R
RUCKER HELI 2  CLOUDY    71  67  87 NE7       29.89R
FLORALA APT    CLOUDY    71  68  90 NE5       29.90R
ANDALUSIA      CLOUDY    74  67  78 NE3       29.89R
TROY           CLOUDY    70  67  90 NE3       29.91S
EUFALA         CLOUDY    70  65  84 VRB5      29.90R
MOBILE         CLEAR     69  69 100 N3        29.89R
$$

!GAZ120>161-301100
...Southwest and South Central Georgia...

CITY           SKY/WX    TMP DP  RH WIND       PRES   REMARKS
THOMASVILLE    CLOUDY    72  72 100 NE6       29.87S
BAINBRIDGE     MOCLDY    73  72  94 NE8       29.87S
MOODY AFB      CLOUDY    68  68 100 NE7       29.87R
VALDOSTA       CLOUDY    69  68  96 NE7       29.86S
MOULTRIE       CLOUDY    70  70 100 NE3       29.88S
BLAKELY        CLOUDY    72  68  88 NE3         N/A
ALBANY         CLOUDY    70  66  88 N6        29.91R
TIFTON         CLOUDY    67  67  99 NE5       29.88S
FITZGERALD     CLOUDY    68  65  91 N6        29.92R FOG
CORDELE        CLOUDY    69  67  93 E5        29.91S FOG
AMERICUS       CLOUDY    66  66 100 NE3       29.93R FOG
HOMERVILLE     CLOUDY    70  70 100 CALM      29.87S FOG
$$

!GMZ750-755-770-775-301100
...Coastal and Buoy Obs...

STATION/POSITION TIME  TEMP    WIND        PRES    VSBY  WAVE
                       AIR SEA DIR/SP/G                  HT/PER
                 (UTC) (F)     (DEG/KT/KT) (MB)    (MI)  (FT/S)
KEATON BEACH     1000   73      40/  3/  5 1010.5R
CEDAR KEY        1000   74      10/  4/  5 1010.3R
C TOWER          1000   76      50/ 15/ 16 1009.8R
APALACHICOLA BUO 1000   81 83  220/ 10/ 10 1009.4R         1/ 4
PANAMA CITY BUOY 0931   77 82  340/  8/ 10 1008.8R         2/ 4
MOBILE BUOY      0939   79 82   60/ 10/ 12 1010.9R         2/ 4
ORANGE BCH AL BU 1000   77 82   60/ 14/ 16 1010.8R         3/ 5
$$



USA.gov is the U.S. government's official web portal to all federal, state and local government web resources and services.